EW7452 Weather Reports


Display with metric or nautical units.
time (UTC)temp
F
wind
direction
speed
MPH
gust
MPH
rain 1hr
in
rain 24hr
in
rain mn
in
humidity
%
barometer
mb
20260508091614 54 291 7.0 9.0 0.00 0.00 0.00 60 1024.8
20260508090110 54 280 4.0 7.0 0.00 0.00 0.00 61 1024.6
20260508084510 53 280 3.0 7.0 0.00 0.00 0.00 63 1024.6
20260508083103 52 279 5.0 8.0 0.00 0.00 0.00 65 1024.5
20260508081602 53 279 5.0 8.0 0.00 0.00 0.00 65 1024.4
20260508080201 52 280 5.0 8.0 0.00 0.00 0.00 66 1024.3
20260508074500 51 279 6.0 10.0 0.00 0.00 0.00 69 1024.2
20260508073100 52 276 9.0 11.0 0.00 0.00 0.00 68 1024.1
20260508071501 53 276 8.0 11.0 0.00 0.00 0.00 68 1024.1
20260508070010 53 276 4.0 9.0 0.00 0.00 0.00 68 1023.8
20260508063102 54 276 3.0 6.0 0.00 0.00 0.00 63 1023.3
20260508061613 55 276 1.0 6.0 0.00 0.00 0.00 62 1023.1
20260508060106 54 276 2.0 3.0 0.00 0.00 0.00 64 1023.0
20260508054511 53 276 2.0 6.0 0.00 0.00 0.00 66 1022.7
20260508053110 52 276 4.0 6.0 0.00 0.00 0.00 68 1022.5
20260508051601 51 276 5.0 7.0 0.00 0.00 0.00 71 1022.3
20260508050110 48 276 2.0 4.0 0.00 0.00 0.00 75 1022.2
20260508044502 47 276 1.0 4.0 0.00 0.00 0.00 78 1022.1
20260508043113 45 276 1.0 5.0 0.00 0.00 0.00 81 1021.9
20260508041601 44 276 0.0 3.0 0.00 0.00 0.00 82 1021.7
20260508040105 44 276 1.0 4.0 0.00 0.00 0.00 87 1021.5
20260508034511 42 276 2.0 4.0 0.00 0.00 0.00 89 1021.3
20260508033110 41 276 3.0 7.0 0.00 0.00 0.00 90 1021.2
20260508031600 40 276 2.0 6.0 0.00 0.00 0.00 91 1021.0
20260508030105 39 276 3.0 7.0 0.00 0.00 0.00 91 1020.9
20260508024601 38 276 5.0 8.0 0.00 0.00 0.00 91 1020.8
20260508023014 37 276 3.0 7.0 0.00 0.00 0.00 91 1020.6
20260508021501 37 276 3.0 7.0 0.00 0.00 0.00 91 1020.6
20260508020001 36 276 3.0 7.0 0.00 0.00 0.00 91 1020.4
20260508014601 36 276 3.0 7.0 0.00 0.00 0.00 91 1020.3
20260508013000 36 276 3.0 8.0 0.00 0.00 0.00 91 1020.1
20260508011608 36 276 4.0 11.0 0.00 0.00 0.00 91 1020.0
20260508010007 36 273 3.0 7.0 0.00 0.00 0.00 91 1019.9
20260508004501 36 273 4.0 7.0 0.00 0.00 0.00 91 1019.7
20260508003001 36 274 4.0 9.0 0.00 0.00 0.00 91 1019.6
20260508001501 36 273 4.0 8.0 0.00 0.00 0.00 91 1019.5
20260508000100 36 273 5.0 8.0 0.00 0.00 0.00 91 1019.4
20260507234518 36 268 3.0 7.0 0.00 0.00 0.00 91 1019.2
20260507233101 37 268 3.0 8.0 0.00 0.00 0.00 91 1019.0
20260507231502 37 268 3.0 7.0 0.00 0.00 0.00 91 1019.0
20260507224505 37 264 7.0 9.0 0.00 0.00 0.00 91 1018.8
20260507223011 38 263 3.0 7.0 0.00 0.00 0.00 91 1018.6
20260507221501 38 264 6.0 8.0 0.00 0.00 0.00 91 1018.6
20260507220011 39 261 7.0 10.0 0.00 0.00 0.00 91 1018.5
20260507214511 39 254 6.0 9.0 0.00 0.00 0.00 90 1018.4
20260507213110 39 255 6.0 9.0 0.00 0.00 0.00 90 1018.2
20260507211505 39 256 9.0 11.0 0.00 0.00 0.00 91 1018.0
20260507210002 39 260 8.0 10.0 0.00 0.00 0.00 90 1017.9
20260507204511 39 260 7.0 9.0 0.00 0.00 0.00 90 1017.8
20260507203108 39 260 7.0 9.0 0.00 0.00 0.00 90 1017.4
20260507201501 39 260 8.0 10.0 0.00 0.00 0.00 90 1017.3
20260507200004 39 268 8.0 9.0 0.00 0.00 0.00 90 1017.3
20260507194513 38 268 4.0 7.0 0.00 0.00 0.00 90 1017.2
20260507193103 39 268 6.0 9.0 0.00 0.00 0.00 90 1017.0
20260507191601 39 268 4.0 6.0 0.00 0.00 0.00 89 1016.8
20260507190002 39 268 5.0 8.0 0.00 0.00 0.00 89 1016.8
20260507184502 39 268 7.0 11.0 0.00 0.00 0.00 89 1016.7
20260507183051 39 268 9.0 12.0 0.00 0.00 0.00 89 1016.6
20260507181602 39 269 10.0 12.0 0.00 0.00 0.00 89 1016.6
20260507174501 40 270 12.0 15.0 0.00 0.00 0.00 88 1016.4
20260507173108 40 272 13.0 15.0 0.00 0.00 0.00 87 1016.2
20260507171503 40 283 10.0 13.0 0.00 0.00 0.00 86 1016.2
20260507170013 40 287 10.0 13.0 0.00 0.00 0.00 85 1016.2
20260507164502 41 294 9.0 14.0 0.00 0.00 0.00 84 1016.0
20260507163011 42 292 8.0 13.0 0.00 0.00 0.00 83 1015.8
20260507161613 43 293 7.0 12.0 0.00 0.00 0.00 81 1015.5
20260507160003 44 287 10.0 13.0 0.00 0.00 0.00 78 1015.4
20260507154503 44 328 4.0 6.0 0.00 0.00 0.00 74 1015.4
20260507153003 43 328 3.0 5.0 0.00 0.00 0.00 74 1015.2
20260507151601 43 328 4.0 6.0 0.00 0.00 0.00 77 1015.0
20260507150005 42 328 3.0 9.0 0.00 0.00 0.00 82 1014.9
20260507144601 41 16 4.0 8.0 0.00 0.00 0.00 81 1015.0
20260507143002 42 16 4.0 10.0 0.00 0.00 0.00 81 1015.0
20260507141511 41 33 4.0 10.0 0.00 0.00 0.00 83 1014.9
20260507140001 41 35 6.0 10.0 0.00 0.00 0.00 83 1014.6
20260507134527 41 32 6.0 10.0 0.00 0.00 0.00 83 1014.5
20260507133012 42 25 5.0 11.0 0.00 0.00 0.00 82 1014.4
20260507131627 42 40 7.0 13.0 0.00 0.00 0.00 82 1014.4
20260507130003 42 35 9.0 13.0 0.00 0.00 0.00 83 1014.4
20260507124602 41 46 11.0 14.0 0.00 0.00 0.00 85 1014.5
20260507123019 41 4 2.0 10.0 0.00 0.00 0.00 82 1014.7
20260507121502 41 8 4.0 12.0 0.00 0.00 0.00 82 1014.5
20260507120104 40 19 6.0 14.0 0.00 0.00 0.00 83 1014.4
20260507114521 40 359 6.0 13.0 0.00 0.00 0.00 84 1014.5
20260507113012 40 354 5.0 12.0 0.00 0.00 0.00 84 1014.5
20260507111509 40 337 7.0 12.0 0.00 0.00 0.00 82 1014.7
20260507110124 42 347 4.0 8.0 0.00 0.00 0.00 80 1014.7
20260507104603 43 10 5.0 10.0 0.00 0.00 0.00 76 1014.7
20260507103102 44 324 3.0 9.0 0.00 0.00 0.00 80 1014.7
20260507101518 45 302 3.0 11.0 0.00 0.00 0.00 80 1014.8
20260507100013 43 301 7.0 11.0 0.00 0.00 0.00 85 1014.9
20260507094619 42 298 7.0 12.0 0.00 0.00 0.00 87 1014.9
20260507093002 43 274 17.0 19.0 0.00 0.00 0.00 84 1015.2